This is the latest recevied weather packets stored in our database for station/object W2SBL-1. If no packets are shown the sender has not sent any weather packets the latest 10 day(s).
| Time | Temp. | Humidity | Pressure | Rain* | Wind** | Luminosity | Snow |
|---|---|---|---|---|---|---|---|
| 1778021850 | 19.44° C | 49% | 1009.6 hPa | - | - | - | - |
| 1778020950 | 20° C | 48% | 1009.5 hPa | - | - | - | - |
| 1778020050 | 20.56° C | 48% | 1009.5 hPa | - | - | - | - |
| 1778019150 | 22.22° C | 46% | 1009.3 hPa | - | - | - | - |
| 1778018250 | 22.22° C | 46% | 1009.4 hPa | - | - | - | - |
| 1778017350 | 22.78° C | 46% | 1009.1 hPa | - | - | - | - |
| 1778016450 | 23.33° C | 46% | 1008.9 hPa | - | - | - | - |
| 1778015550 | 23.89° C | 45% | 1008.8 hPa | - | - | - | - |
| 1778014650 | 25° C | 44% | 1008.6 hPa | - | - | - | - |
| 1778013750 | 25.56° C | 44% | 1008.9 hPa | - | - | - | - |
| 1778012850 | 25° C | 44% | 1008.8 hPa | - | - | - | - |
| 1778011949 | 25.56° C | 43% | 1009.2 hPa | - | - | - | - |
| 1778011049 | 26.11° C | 43% | 1009.4 hPa | - | - | - | - |
| 1778010149 | 26.11° C | 43% | 1009.7 hPa | - | - | - | - |
| 1778009249 | 26.67° C | 43% | 1009.8 hPa | - | - | - | - |
| 1778008349 | 25° C | 45% | 1010.1 hPa | - | - | - | - |
| 1778007449 | 25.56° C | 44% | 1010.3 hPa | - | - | - | - |
| 1778006549 | 26.11° C | 43% | 1010.4 hPa | - | - | - | - |
| 1778005649 | 25.56° C | 45% | 1010.8 hPa | - | - | - | - |
| 1778004749 | 25.56° C | 44% | 1010.7 hPa | - | - | - | - |
| 1778003849 | 25.56° C | 44% | 1011 hPa | - | - | - | - |
| 1778002949 | 26.11° C | 44% | 1010.9 hPa | - | - | - | - |
| 1778002049 | 26.11° C | 43% | 1011 hPa | - | - | - | - |
| 1778001148 | 25.56° C | 43% | 1011.1 hPa | - | - | - | - |
| 1777999348 | 24.44° C | 44% | 1011.2 hPa | - | - | - | - |
* Rain since midnight (hover to see other rain measurements)
** Current wind speed in m/s (hover to see current wind gust speed)